| time (UTC) | temp C | wind direction | speed KPH | gust KPH | rain 1hr cm | rain 24hr cm | rain mn cm | humidity % | barometer mb |
| 20260508214535 | 11 | 0 | 0.0 | 3.2 | 0.00 | 0.00 | 0.00 | 39 | 1008.8 |
| 20260508213034 | 11 | 0 | 0.0 | 9.7 | 0.00 | 0.00 | 0.00 | 41 | 1008.8 |
| 20260508211535 | 11 | 0 | 0.0 | 6.4 | 0.00 | 0.00 | 0.00 | 37 | 1008.8 |
| 20260508211252 | 11 | 299 | 1.6 | 4.8 | 0.00 | 0.00 | 0.00 | 39 | 1008.7 |
| 20260508210745 | 11 | 340 | 1.6 | 4.8 | 0.00 | 0.00 | 0.00 | 38 | 1008.6 |
| 20260508210236 | 11 | 70 | 0.0 | 4.8 | 0.00 | 0.00 | 0.00 | 35 | 1008.5 |
| 20260508210036 | 11 | 329 | 1.6 | 9.7 | 0.00 | 0.00 | 0.00 | 36 | 1008.6 |
| 20260508205722 | 11 | 23 | 0.0 | 4.8 | 0.00 | 0.00 | 0.00 | 36 | 1008.5 |
| 20260508204539 | 11 | 324 | 3.2 | 8.0 | 0.00 | 0.00 | 0.00 | 40 | 1008.5 |
| 20260508203942 | 11 | 340 | 1.6 | 4.8 | 0.00 | 0.00 | 0.00 | 39 | 1008.3 |
| 20260508203450 | 11 | 340 | 1.6 | 4.8 | 0.00 | 0.00 | 0.00 | 39 | 1008.4 |
| 20260508203035 | 11 | 302 | 3.2 | 6.4 | 0.00 | 0.00 | 0.00 | 39 | 1008.4 |
| 20260508202957 | 11 | 357 | 1.6 | 4.8 | 0.00 | 0.00 | 0.00 | 39 | 1008.3 |
| 20260508202453 | 11 | 336 | 1.6 | 4.8 | 0.00 | 0.00 | 0.00 | 38 | 1008.3 |
| 20260508201536 | 11 | 358 | 1.6 | 6.4 | 0.00 | 0.00 | 0.00 | 38 | 1008.3 |
| 20260508200655 | 11 | 321 | 0.0 | 0.0 | 0.00 | 0.00 | 0.00 | 39 | 1008.2 |
| 20260508200201 | 10 | 321 | 0.0 | 0.0 | 0.00 | 0.00 | 0.00 | 41 | 1008.3 |
| 20260508200043 | 10 | 0 | 0.0 | 8.0 | 0.00 | 0.00 | 0.00 | 39 | 1008.3 |
| 20260508195649 | 10 | 3 | 1.6 | 4.8 | 0.00 | 0.00 | 0.00 | 39 | 1008.4 |
| 20260508195149 | 11 | 301 | 0.0 | 3.2 | 0.00 | 0.00 | 0.00 | 39 | 1008.4 |
| 20260508194535 | 10 | 23 | 0.0 | 4.8 | 0.00 | 0.00 | 0.00 | 41 | 1008.4 |
| 20260508193037 | 10 | 0 | 0.0 | 6.4 | 0.00 | 0.00 | 0.00 | 40 | 1008.5 |
| 20260508191534 | 11 | 24 | 3.2 | 14.5 | 0.00 | 0.00 | 0.00 | 38 | 1008.4 |
| 20260508190043 | 10 | 143 | 1.6 | 6.4 | 0.00 | 0.00 | 0.00 | 42 | 1008.7 |
| 20260508184538 | 9 | 0 | 0.0 | 6.4 | 0.00 | 0.00 | 0.00 | 43 | 1008.8 |
| 20260508183037 | 10 | 353 | 3.2 | 6.4 | 0.00 | 0.00 | 0.00 | 43 | 1008.8 |
| 20260508181537 | 10 | 0 | 1.6 | 12.9 | 0.00 | 0.00 | 0.00 | 40 | 1008.7 |
| 20260508180035 | 10 | 246 | 3.2 | 14.5 | 0.00 | 0.00 | 0.00 | 41 | 1008.8 |
| 20260508174539 | 10 | 236 | 1.6 | 8.0 | 0.00 | 0.00 | 0.00 | 44 | 1009.0 |
| 20260508173038 | 10 | 245 | 1.6 | 12.9 | 0.00 | 0.00 | 0.00 | 42 | 1009.0 |
| 20260508171535 | 9 | 327 | 1.6 | 9.7 | 0.00 | 0.00 | 0.00 | 46 | 1009.1 |
| 20260508170036 | 8 | 307 | 0.0 | 9.7 | 0.00 | 0.00 | 0.00 | 45 | 1009.1 |
| 20260508164538 | 8 | 91 | 1.6 | 8.0 | 0.00 | 0.00 | 0.00 | 44 | 1009.1 |
| 20260508163034 | 8 | 330 | 1.6 | 9.7 | 0.00 | 0.00 | 0.00 | 45 | 1009.3 |
| 20260508161534 | 9 | 124 | 1.6 | 8.0 | 0.00 | 0.00 | 0.00 | 43 | 1009.2 |
| 20260508160036 | 10 | 353 | 1.6 | 8.0 | 0.00 | 0.00 | 0.00 | 42 | 1009.0 |
| 20260508154536 | 10 | 315 | 3.2 | 12.9 | 0.00 | 0.00 | 0.00 | 42 | 1008.9 |
| 20260508153036 | 9 | 107 | 3.2 | 11.3 | 0.00 | 0.00 | 0.00 | 41 | 1008.8 |
| 20260508151534 | 9 | 301 | 1.6 | 8.0 | 0.00 | 0.00 | 0.00 | 43 | 1008.8 |
| 20260508150042 | 10 | 353 | 3.2 | 9.7 | 0.00 | 0.00 | 0.00 | 41 | 1008.9 |
| 20260508144538 | 10 | 239 | 3.2 | 14.5 | 0.00 | 0.00 | 0.00 | 38 | 1008.8 |
| 20260508143036 | 10 | 112 | 3.2 | 9.7 | 0.00 | 0.00 | 0.00 | 40 | 1008.7 |
| 20260508141615 | 10 | 249 | 1.6 | 9.7 | 0.00 | 0.00 | 0.00 | 38 | 1008.9 |
| 20260508141537 | 10 | 348 | 1.6 | 12.9 | 0.00 | 0.00 | 0.00 | 38 | 1008.8 |
| 20260508141100 | 10 | 70 | 1.6 | 12.9 | 0.00 | 0.00 | 0.00 | 38 | 1008.8 |
| 20260508140603 | 9 | 196 | 1.6 | 12.9 | 0.00 | 0.00 | 0.00 | 40 | 1009.0 |
| 20260508140109 | 8 | 348 | 3.2 | 12.9 | 0.00 | 0.00 | 0.00 | 38 | 1008.8 |
| 20260508140035 | 8 | 340 | 3.2 | 16.1 | 0.00 | 0.00 | 0.00 | 38 | 1008.8 |
| 20260508135610 | 8 | 353 | 3.2 | 12.9 | 0.00 | 0.00 | 0.00 | 38 | 1008.9 |
| 20260508135102 | 8 | 80 | 3.2 | 12.9 | 0.00 | 0.00 | 0.00 | 39 | 1009.0 |
| 20260508134555 | 8 | 226 | 3.2 | 12.9 | 0.00 | 0.00 | 0.00 | 40 | 1009.0 |
| 20260508134538 | 8 | 303 | 3.2 | 12.9 | 0.00 | 0.00 | 0.00 | 40 | 1008.9 |
| 20260508134046 | 8 | 288 | 1.6 | 12.9 | 0.00 | 0.00 | 0.00 | 44 | 1009.0 |
| 20260508133533 | 8 | 12 | 3.2 | 12.9 | 0.00 | 0.00 | 0.00 | 44 | 1009.0 |
| 20260508133038 | 7 | 93 | 3.2 | 14.5 | 0.00 | 0.00 | 0.00 | 44 | 1008.8 |
| 20260508133026 | 7 | 109 | 1.6 | 11.3 | 0.00 | 0.00 | 0.00 | 44 | 1008.8 |
| 20260508132527 | 7 | 120 | 0.0 | 8.0 | 0.00 | 0.00 | 0.00 | 45 | 1008.9 |
| 20260508132022 | 7 | 149 | 0.0 | 4.8 | 0.00 | 0.00 | 0.00 | 47 | 1009.0 |
| 20260508131535 | 7 | 332 | 0.0 | 6.4 | 0.00 | 0.00 | 0.00 | 51 | 1009.0 |
| 20260508131519 | 7 | 332 | 0.0 | 3.2 | 0.00 | 0.00 | 0.00 | 51 | 1009.0 |
| 20260508131011 | 7 | 353 | 0.0 | 8.0 | 0.00 | 0.00 | 0.00 | 48 | 1009.0 |
| 20260508130502 | 7 | 357 | 0.0 | 8.0 | 0.00 | 0.00 | 0.00 | 49 | 1009.1 |
| 20260508130056 | 6 | 0 | 0.0 | 16.1 | 0.00 | 0.00 | 0.00 | 51 | 1009.1 |
| 20260508125955 | 7 | 38 | 0.0 | 1.6 | 0.00 | 0.00 | 0.00 | 51 | 1009.1 |
| 20260508124535 | 6 | 0 | 0.0 | 4.8 | 0.00 | 0.00 | 0.00 | 61 | 1009.2 |
| 20260508123035 | 5 | 0 | 0.0 | 3.2 | 0.00 | 0.00 | 0.00 | 63 | 1009.2 |
| 20260508121538 | 5 | 0 | 0.0 | 6.4 | 0.00 | 0.00 | 0.00 | 72 | 1009.2 |
| 20260508120035 | 4 | 0 | 1.6 | 6.4 | 0.00 | 0.00 | 0.00 | 69 | 1009.2 |
| 20260508114535 | 3 | 0 | 0.0 | 4.8 | 0.00 | 0.00 | 0.00 | 76 | 1009.1 |
| 20260508113041 | 1 | 0 | 0.0 | 3.2 | 0.00 | 0.00 | 0.00 | 87 | 1009.0 |
| 20260508111534 | 0 | 0 | 0.0 | 0.0 | 0.00 | 0.00 | 0.00 | 91 | 1008.8 |
| 20260508110037 | 0 | 0 | 0.0 | 0.0 | 0.00 | 0.00 | 0.00 | 92 | 1008.8 |
| 20260508104603 | -1 | 0 | 0.0 | 0.0 | 0.00 | 0.00 | 0.00 | 92 | 1008.7 |
| 20260508103044 | -1 | 0 | 0.0 | 0.0 | 0.00 | 0.00 | 0.00 | 92 | 1008.5 |
| 20260508101535 | -1 | 0 | 0.0 | 0.0 | 0.00 | 0.00 | 0.00 | 92 | 1008.5 |
| 20260508100034 | -1 | 0 | 0.0 | 0.0 | 0.00 | 0.00 | 0.00 | 92 | 1008.3 |
| 20260508094543 | -1 | 0 | 0.0 | 0.0 | 0.00 | 0.00 | 0.00 | 92 | 1008.3 |
| 20260508093035 | -1 | 0 | 0.0 | 0.0 | 0.00 | 0.00 | 0.00 | 92 | 1008.2 |
| 20260508091536 | -1 | 0 | 0.0 | 0.0 | 0.00 | 0.00 | 0.00 | 92 | 1008.1 |
| 20260508090037 | -1 | 0 | 0.0 | 0.0 | 0.00 | 0.00 | 0.00 | 91 | 1007.9 |
| 20260508084535 | -1 | 0 | 0.0 | 0.0 | 0.00 | 0.00 | 0.00 | 91 | 1007.9 |
| 20260508083044 | -1 | 0 | 0.0 | 0.0 | 0.00 | 0.00 | 0.00 | 91 | 1008.0 |
| 20260508081542 | -1 | 0 | 0.0 | 0.0 | 0.00 | 0.00 | 0.00 | 91 | 1007.8 |
| 20260508080036 | -1 | 0 | 0.0 | 0.0 | 0.00 | 0.00 | 0.00 | 91 | 1007.7 |
| 20260508074536 | -1 | 0 | 0.0 | 0.0 | 0.00 | 0.00 | 0.00 | 90 | 1007.6 |
| 20260508073034 | -1 | 0 | 0.0 | 0.0 | 0.00 | 0.00 | 0.00 | 90 | 1007.6 |
| 20260508071538 | -1 | 0 | 0.0 | 0.0 | 0.00 | 0.00 | 0.00 | 89 | 1007.6 |
| 20260508070113 | -1 | 0 | 0.0 | 0.0 | 0.00 | 0.00 | 0.00 | 89 | 1007.8 |
| 20260508064538 | 0 | 0 | 0.0 | 0.0 | 0.00 | 0.00 | 0.00 | 89 | 1007.9 |
| 20260508063037 | 0 | 0 | 0.0 | 0.0 | 0.00 | 0.00 | 0.00 | 88 | 1007.8 |
| 20260508061537 | 0 | 0 | 0.0 | 0.0 | 0.00 | 0.00 | 0.00 | 88 | 1007.8 |
| 20260508060040 | 0 | 0 | 0.0 | 0.0 | 0.00 | 0.00 | 0.00 | 88 | 1007.9 |
| 20260508054537 | 0 | 0 | 0.0 | 0.0 | 0.00 | 0.00 | 0.00 | 87 | 1007.9 |
| 20260508053038 | 0 | 0 | 0.0 | 0.0 | 0.00 | 0.00 | 0.00 | 87 | 1008.1 |
| 20260508051535 | 0 | 0 | 0.0 | 0.0 | 0.00 | 0.00 | 0.00 | 87 | 1008.5 |
| 20260508050036 | 0 | 0 | 0.0 | 0.0 | 0.00 | 0.00 | 0.00 | 86 | 1008.5 |
| 20260508044535 | 0 | 0 | 0.0 | 0.0 | 0.00 | 0.00 | 0.00 | 85 | 1008.5 |
| 20260508043053 | 0 | 0 | 0.0 | 0.0 | 0.00 | 0.00 | 0.00 | 84 | 1008.4 |
| 20260508041537 | 1 | 0 | 0.0 | 0.0 | 0.00 | 0.00 | 0.00 | 83 | 1008.5 |
| 20260508040036 | 1 | 0 | 0.0 | 0.0 | 0.00 | 0.00 | 0.00 | 82 | 1008.4 |
| 20260508034535 | 1 | 0 | 0.0 | 0.0 | 0.00 | 0.00 | 0.00 | 81 | 1008.4 |
| 20260508033038 | 2 | 0 | 0.0 | 0.0 | 0.00 | 0.00 | 0.00 | 79 | 1008.3 |
| 20260508031536 | 2 | 0 | 0.0 | 0.0 | 0.00 | 0.00 | 0.00 | 77 | 1008.3 |
| 20260508030048 | 2 | 0 | 0.0 | 0.0 | 0.00 | 0.00 | 0.00 | 74 | 1008.4 |
| 20260508024536 | 3 | 0 | 0.0 | 0.0 | 0.00 | 0.10 | 0.00 | 72 | 1008.4 |
| 20260508023037 | 3 | 0 | 0.0 | 0.0 | 0.00 | 0.10 | 0.00 | 70 | 1008.3 |
| 20260508021537 | 3 | 0 | 0.0 | 0.0 | 0.00 | 0.10 | 0.00 | 70 | 1008.3 |
| 20260508020036 | 4 | 0 | 0.0 | 0.0 | 0.00 | 0.10 | 0.00 | 69 | 1008.1 |
| 20260508014535 | 5 | 0 | 0.0 | 0.0 | 0.00 | 0.25 | 0.00 | 65 | 1008.0 |
| 20260508013034 | 6 | 0 | 0.0 | 0.0 | 0.00 | 0.25 | 0.00 | 60 | 1007.9 |
| 20260508011536 | 7 | 0 | 0.0 | 0.0 | 0.00 | 0.25 | 0.00 | 61 | 1007.8 |
| 20260508010042 | 7 | 0 | 0.0 | 0.0 | 0.00 | 0.25 | 0.00 | 48 | 1007.6 |
| 20260508004538 | 8 | 0 | 0.0 | 0.0 | 0.00 | 0.38 | 0.00 | 47 | 1007.3 |
| 20260508003037 | 8 | 0 | 0.0 | 0.0 | 0.00 | 0.38 | 0.00 | 46 | 1007.2 |
| 20260508001536 | 8 | 0 | 1.6 | 9.7 | 0.00 | 0.38 | 0.00 | 44 | 1007.0 |
| 20260508000041 | 9 | 4 | 1.6 | 6.4 | 0.00 | 0.38 | 0.00 | 42 | 1006.9 |
| 20260507234541 | 10 | 0 | 0.0 | 4.8 | 0.00 | 0.48 | 0.00 | 41 | 1006.6 |
| 20260507233036 | 10 | 0 | 1.6 | 11.3 | 0.00 | 0.48 | 0.00 | 39 | 1006.5 |
| 20260507231535 | 11 | 0 | 1.6 | 20.9 | 0.00 | 0.48 | 0.00 | 37 | 1006.3 |
| 20260507230036 | 11 | 0 | 1.6 | 11.3 | 0.00 | 0.48 | 0.00 | 37 | 1006.2 |
| 20260507224535 | 11 | 11 | 1.6 | 11.3 | 0.00 | 0.53 | 0.00 | 36 | 1006.1 |
| 20260507223034 | 11 | 1 | 1.6 | 12.9 | 0.00 | 0.53 | 0.00 | 38 | 1006.0 |
| 20260507221535 | 11 | 198 | 4.8 | 16.1 | 0.00 | 0.53 | 0.00 | 35 | 1005.9 |
| 20260507220037 | 11 | 0 | 1.6 | 14.5 | 0.00 | 0.53 | 0.00 | 36 | 1005.8 |